Flag for Canada Weather past 2 weeks in Clarington, Ontario, Canada

Now
50 °F

Overcast.


Feels Like: 47 °F
Forecast: 41 / 59 °F
Wind: 7 mph from Northeast

Location: Peterborough Airport

Current Time: Oct 22, 2014 at 8:52:21 PM

Latest Report: Oct 22, 2014 at 8:00 PM


Visibility: 9 mi

Pressure: 30.25 "Hg

Humidity: 71%

Dew point: 41 °F

Location of ClaringtonLocation

Historic Weather in Clarington — Graph

°F

Clarington temperature yesterday

Maximum temperature yesterday: 50 °F (at 12:00 AM)
Minimum temperature yesterday: 43 °F (at 5:03 PM)
Average temperature yesterday: 46 °F

Past Weeks' High & Low Weather Summary

 TemperatureHumidityPressure
High77 °F (Oct 14, 1:00 PM)100% (Oct 7, 8:00 PM)30.32 "Hg (Oct 7, 8:00 PM)
Low28 °F (Oct 12, 4:00 AM)38% (Oct 12, 5:00 PM)29.46 "Hg (Oct 18, 1:00 AM)
Average49 °F87%29.90 "Hg
* Reported Oct 7 7:00 PM — Oct 22 7:00 PM, Clarington, Weather by CustomWeather, © 2014

Note: Actual official high and low records may vary slightly from our data, if they occured in-between our weather recording intervals... More about our weather records

Advertising

Clarington weather history for previous 24 hours

 ConditionsComfort  
Time TempWeatherWind HumidityBarometerVisibility
7:00 PM
Oct 22
50 °FOvercast.12 mph76%30.25 "Hg9 mi
6:00 PM52 °FOvercast.8 mph72%30.24 "Hg9 mi
5:00 PM54 °FMore clouds than sun.12 mph67%30.23 "Hg9 mi
4:00 PM55 °FPassing clouds.8 mph63%30.22 "Hg9 mi
3:00 PM55 °FSunny.13 mph63%30.23 "Hg9 mi
2:00 PM54 °FSunny.12 mph63%30.24 "Hg9 mi
1:00 PM52 °FPartly sunny.13 mph67%30.25 "Hg9 mi
12:00 PM50 °FPartly sunny.13 mph67%30.27 "Hg9 mi
11:00 AM45 °FOvercast.9 mph76%30.29 "Hg9 mi
10:00 AM43 °FSunny.12 mph76%30.28 "Hg9 mi
9:00 AM41 °FSunny.9 mph76%30.28 "Hg9 mi
8:00 AM37 °FClear.7 mph87%30.27 "Hg9 mi
7:00 AM41 °FPassing clouds.7 mph81%30.24 "Hg9 mi
6:00 AM41 °FOvercast.6 mph81%30.22 "Hg9 mi
5:00 AM43 °FOvercast.9 mph76%30.21 "Hg9 mi
4:00 AM43 °FOvercast.9 mph76%30.19 "Hg9 mi
3:00 AM41 °FOvercast.9 mph81%30.19 "Hg9 mi
2:00 AM41 °FOvercast.9 mph81%30.18 "Hg9 mi
1:00 AM43 °FOvercast.8 mph81%30.17 "Hg9 mi
12:00 AM43 °FMostly cloudy.8 mph81%30.17 "Hg9 mi
11:00 PM
Oct 21
43 °FOvercast.13 mph81%30.16 "Hg9 mi
10:00 PM43 °FOvercast.14 mph87%30.15 "Hg9 mi
9:00 PM43 °FOvercast.10 mph87%30.13 "Hg9 mi
8:00 PM43 °FLight rain. Overcast.15 mph93%30.11 "Hg9 mi
Weather by CustomWeather, © 2014

See weather overviewHow to use our weather pages